Find Gorizont

NORAD ID: 11440 Int'l Des: 1979-062 Owner: MSVYAZ Country: SU operational
HEOCIRCULARGSO

リアルタイム位置

3D地球を読み込み中...

Gorizontについて

説明を読み込み中...

次回通過

Passes for default location (London). Set your location on the main map for personalized predictions.

高度履歴

Loading altitude history...

軌道要素

1 11440U 79062A 26104.60085622 -.00000059 00000-0 00000+0 0 9990
2 11440 5.8932 286.5338 0005721 4.5059 200.0061 1.00237303137382
Epoch: Apr 14, 2026 • Age: 15 hours

現在のステータス

高度 35786.9 km
速度 3.08 km/s
衛星直下点 5.69°N, 71.87°E
打ち上げ日 Jul 5, 1979
運用期間 46.7 years
タイプ other

技術仕様

分類 Payload
質量 2120.00 kg
乾燥質量 2000.00 kg
総質量 2120.00 kg
長さ 5.50 m
直径 3.30 m
スパン 9.50 m
形状 Cyl + 2 Pan
製造者 NPOPM
バスタイプ Gorizont
フェーズステータス In Orbit
所有者/国 MSVYAZ/SU

Most Searched